Regional Weather Roundup
Issued by NWS

Home | Current Version | Previous Version | Graphics & Text | Print | Product List | Glossary On
Versions: 1 2 3 4 5 6 7 8 9 10 11 12 13 14 15 16 17 18 19 20 21 22 23 24 25 26 27 28 29 30 31 32 33 34 35 36 37 38 39 40 41 42 43 44 45 46 47 48 49 50
141
ASUS44 KLIX 170805
RWRLA
LOUISIANA WEATHER ROUNDUP
NATIONAL WEATHER SERVICE NEW ORLEANS LA
300 AM CDT THU APR 17 2014

NOTE: "FAIR" INDICATES FEW OR NO CLOUDS BELOW 12,000 FEET WITH NO
      SIGNIFICANT WEATHER AND/OR OBSTRUCTIONS TO VISIBILITY.
      SKY/WX - SKY CONDITION AND SIGNIFICANT WEATHER.
      TMP - AIR TEMPERATURE.    DP   - DEWPOINT TEMPERATURE.
      RH  - RELATIVE HUMIDITY.  PRES - PRESSURE.
      HX  - HEAT INDEX.         WCI  - WIND CHILL INDEX.

*  THESE STATIONS ARE NOT NWS OR FAA STATIONS AND ARE NOT UNDER
   NWS QUALITY CONTROL.

LAZ040-048-061>063-065-066-069-170900-
SOUTHEAST LOUISIANA

CITY           SKY/WX    TMP DP  RH WIND       PRES   REMARKS
N.O. AUDUBON     N/A     55  47  72 MISG        N/A
N.O. INTL ARPT CLOUDY    55  49  80 E3        30.12F
N.O. LAKEFRONT CLOUDY    59  51  75 E8        30.13F
N.O. DOWNTOWN* CLOUDY    57  46  67 CALM      30.12F
SLIDELL        PTCLDY    48  46  93 N6        30.13F
BATON ROUGE    PTCLDY    47  43  86 CALM      30.13F
BOOTHVILLE     CLOUDY    61  51  70 SE8       30.12F
BELLE CHASSE   CLOUDY    53  50  89 CALM      30.11F
BOGALUSA*        N/A     44  41  90 CALM      30.17F
GALLIANO*      CLOUDY    61  52  72 NE6       30.10F
NEW ROADS*     FAIR      47  43  86 CALM      30.14R
GONZALES*      PTSUNNY   46  46 100 CALM      30.12F
HAMMOND*       MOCLDY    46  43  87 CALM      30.15F
HOUMA*           N/A     56  48  76 NE5       30.10F
PORT FOURCHON* CLOUDY    64  52  63 SE9G16    30.11F

$$

LAZ041-044-053-054-170900-
SOUTHWEST LOUISIANA

CITY           SKY/WX    TMP DP  RH WIND       PRES   REMARKS
LAKE CHARLES   MOCLDY    54  50  86 E9        30.09F
LAFAYETTE      PTCLDY    50  48  93 CALM      30.13R
PATTERSON      CLOUDY    54  46  76 E3          N/A
SALT POINT       N/A     57  49  74 CALM      30.09F
NEW IBERIA     PTCLDY    51  47  86 E3        30.13R
CHENAULT AIRPK MOCLDY    53  49  87 E6        30.11F

$$

LAZ027-028-170900-
CENTRAL LOUISIANA

CITY           SKY/WX    TMP DP  RH WIND       PRES   REMARKS
FORT POLK      CLOUDY    49  46  90 CALM      30.12F
ALEXANDRIA INT MOCLDY    50  45  83 S3        30.13S
ALEXANDRIA     MOCLDY    43  40  89 CALM      30.15S

$$

LAZ001-002-170900-
NORTHWEST LOUISIANA

CITY           SKY/WX    TMP DP  RH WIND       PRES   REMARKS
SHREVEPORT     PTCLDY    45  40  82 CALM      30.13R
BARKSDALE AFB  CLEAR     46  39  79 CALM      30.14R
DTN SHREVEPORT CLEAR     42  39  89 CALM      30.14R

$$

LAZ014-016-170900-
NORTHEAST LOUISIANA

CITY           SKY/WX    TMP DP  RH WIND       PRES   REMARKS
MONROE         CLEAR     43  40  89 CALM      30.17S
TALLULAH       CLEAR     49  44  83 E6        30.18R

$$




USA.gov is the U.S. government's official web portal to all federal, state and local government web resources and services.